| time (UTC) | temp C | wind direction | speed KPH | gust KPH | rain 1hr cm | rain 24hr cm | rain mn cm | humidity % | barometer mb |
| 20260906233001 | 37 | 148 | 0.0 | 1.6 | 0.00 | 0.00 | 0.00 | 38 | 1008.7 |
| 20260906231558 | 37 | 224 | 0.0 | 1.6 | 0.00 | 0.00 | 0.00 | 37 | 1008.8 |
| 20260906230057 | 38 | 108 | 0.0 | 1.6 | 0.00 | 0.00 | 0.00 | 35 | 1008.6 |
| 20260906224548 | 39 | 151 | 0.0 | 1.6 | 0.00 | 0.00 | 0.00 | 34 | 1008.7 |
| 20260906223052 | 40 | 141 | 0.0 | 1.6 | 0.00 | 0.00 | 0.00 | 33 | 1008.8 |
| 20260906221540 | 39 | 151 | 0.0 | 1.6 | 0.00 | 0.00 | 0.00 | 34 | 1009.0 |
| 20260906220035 | 39 | 205 | 0.0 | 4.8 | 0.00 | 0.00 | 0.00 | 35 | 1008.9 |
| 20260906214530 | 38 | 91 | 0.0 | 3.2 | 0.00 | 0.00 | 0.00 | 37 | 1009.0 |
| 20260906213026 | 38 | 38 | 0.0 | 1.6 | 0.00 | 0.00 | 0.00 | 36 | 1009.2 |
| 20260906211522 | 40 | 75 | 0.0 | 3.2 | 0.00 | 0.00 | 0.00 | 34 | 1009.6 |
| 20260906210020 | 40 | 153 | 0.0 | 1.6 | 0.00 | 0.00 | 0.00 | 35 | 1009.7 |
| 20260906204513 | 40 | 217 | 0.0 | 1.6 | 0.00 | 0.00 | 0.00 | 35 | 1009.8 |
| 20260906203013 | 40 | 96 | 0.0 | 1.6 | 0.00 | 0.00 | 0.00 | 35 | 1010.0 |
| 20260906201505 | 40 | 47 | 0.0 | 1.6 | 0.00 | 0.00 | 0.00 | 34 | 1010.2 |
| 20260906200002 | 40 | 153 | 0.0 | 1.6 | 0.00 | 0.00 | 0.00 | 35 | 1010.3 |
| 20260906194555 | 39 | 50 | 0.0 | 1.6 | 0.00 | 0.00 | 0.00 | 37 | 1010.4 |
| 20260906193051 | 38 | 49 | 0.0 | 4.8 | 0.00 | 0.00 | 0.00 | 38 | 1010.6 |
| 20260906191556 | 38 | 146 | 0.0 | 1.6 | 0.00 | 0.00 | 0.00 | 39 | 1010.8 |
| 20260906190042 | 38 | 277 | 0.0 | 1.6 | 0.00 | 0.00 | 0.00 | 38 | 1010.9 |
| 20260906184541 | 39 | 190 | 0.0 | 3.2 | 0.00 | 0.00 | 0.00 | 38 | 1011.1 |
| 20260906183037 | 38 | 68 | 0.0 | 3.2 | 0.00 | 0.00 | 0.00 | 39 | 1011.3 |
| 20260906181529 | 38 | 153 | 0.0 | 1.6 | 0.00 | 0.00 | 0.00 | 39 | 1011.4 |
| 20260906180024 | 37 | 108 | 0.0 | 1.6 | 0.00 | 0.00 | 0.00 | 41 | 1011.7 |
| 20260906174520 | 37 | 38 | 0.0 | 1.6 | 0.00 | 0.00 | 0.00 | 42 | 1012.0 |
| 20260906173016 | 37 | 152 | 0.0 | 1.6 | 0.00 | 0.00 | 0.00 | 46 | 1012.2 |
| 20260906171511 | 36 | 161 | 0.0 | 1.6 | 0.00 | 0.00 | 0.00 | 47 | 1012.5 |
| 20260906170007 | 36 | 159 | 0.0 | 1.6 | 0.00 | 0.00 | 0.00 | 47 | 1012.7 |
| 20260906164502 | 35 | 129 | 0.0 | 1.6 | 0.00 | 0.00 | 0.00 | 48 | 1012.8 |
| 20260906163121 | 35 | 50 | 0.0 | 1.6 | 0.00 | 0.00 | 0.00 | 50 | 1012.8 |
| 20260906161553 | 34 | 60 | 0.0 | 1.6 | 0.00 | 0.00 | 0.00 | 52 | 1012.8 |
| 20260906160049 | 33 | 267 | 0.0 | 1.6 | 0.00 | 0.00 | 0.00 | 56 | 1012.9 |
| 20260906154545 | 32 | 152 | 0.0 | 1.6 | 0.00 | 0.00 | 0.00 | 56 | 1012.9 |
| 20260906153046 | 32 | 155 | 0.0 | 1.6 | 0.00 | 0.00 | 0.00 | 57 | 1012.8 |
| 20260906151536 | 31 | 145 | 0.0 | 1.6 | 0.00 | 0.00 | 0.00 | 57 | 1012.9 |
| 20260906150031 | 31 | 170 | 0.0 | 0.0 | 0.00 | 0.00 | 0.00 | 56 | 1012.7 |
| 20260906144528 | 31 | 145 | 0.0 | 1.6 | 0.00 | 0.00 | 0.00 | 55 | 1012.6 |
| 20260906143022 | 30 | 148 | 0.0 | 0.0 | 0.00 | 0.00 | 0.00 | 53 | 1012.6 |
| 20260906141518 | 29 | 148 | 0.0 | 0.0 | 0.00 | 0.00 | 0.00 | 48 | 1012.7 |
| 20260906140015 | 28 | 148 | 0.0 | 0.0 | 0.00 | 0.00 | 0.00 | 38 | 1012.5 |
| 20260906134512 | 28 | 148 | 0.0 | 0.0 | 0.00 | 0.00 | 0.00 | 28 | 1012.6 |
| 20260906133008 | 27 | 148 | 0.0 | 0.0 | 0.00 | 0.00 | 0.00 | 9 | 1012.5 |
| 20260906131511 | 26 | 148 | 0.0 | 0.0 | 0.00 | 0.00 | 0.00 | 1 | 1012.5 |
| 20260906130002 | 26 | 148 | 0.0 | 0.0 | 0.00 | 0.00 | 0.00 | 1 | 1012.5 |
| 20260906124557 | 26 | 148 | 0.0 | 0.0 | 0.00 | 0.00 | 0.00 | 1 | 1012.3 |
| 20260906123054 | 25 | 148 | 0.0 | 0.0 | 0.00 | 0.00 | 0.00 | 1 | 1012.3 |
| 20260906121550 | 25 | 148 | 0.0 | 0.0 | 0.00 | 0.00 | 0.00 | 1 | 1012.2 |
| 20260906120054 | 25 | 148 | 0.0 | 0.0 | 0.00 | 0.00 | 0.00 | 1 | 1011.9 |
| 20260906114539 | 25 | 148 | 0.0 | 0.0 | 0.00 | 0.00 | 0.00 | 1 | 1011.8 |
| 20260906113035 | 25 | 148 | 0.0 | 0.0 | 0.00 | 0.00 | 0.00 | 1 | 1011.7 |
| 20260906111530 | 25 | 148 | 0.0 | 0.0 | 0.00 | 0.00 | 0.00 | 3 | 1011.5 |
| 20260906110029 | 25 | 148 | 0.0 | 0.0 | 0.00 | 0.00 | 0.00 | 5 | 1011.4 |
| 20260906104627 | 26 | 148 | 0.0 | 0.0 | 0.00 | 0.00 | 0.00 | 6 | 1011.4 |
| 20260906103025 | 26 | 148 | 0.0 | 0.0 | 0.00 | 0.00 | 0.00 | 9 | 1011.4 |
| 20260906101524 | 26 | 148 | 0.0 | 0.0 | 0.00 | 0.00 | 0.00 | 12 | 1011.3 |
| 20260906100022 | 26 | 148 | 0.0 | 0.0 | 0.00 | 0.00 | 0.00 | 15 | 1011.0 |
| 20260906094519 | 26 | 148 | 0.0 | 0.0 | 0.00 | 0.00 | 0.00 | 18 | 1010.8 |
| 20260906093028 | 26 | 148 | 0.0 | 0.0 | 0.00 | 0.00 | 0.00 | 23 | 1010.8 |
| 20260906091515 | 27 | 148 | 0.0 | 0.0 | 0.00 | 0.00 | 0.00 | 26 | 1010.7 |
| 20260906090013 | 27 | 148 | 0.0 | 0.0 | 0.00 | 0.00 | 0.00 | 28 | 1010.7 |
| 20260906084514 | 27 | 148 | 0.0 | 0.0 | 0.00 | 0.00 | 0.00 | 33 | 1010.5 |
| 20260906083007 | 27 | 148 | 0.0 | 0.0 | 0.00 | 0.00 | 0.00 | 36 | 1010.6 |
| 20260906081506 | 27 | 148 | 0.0 | 0.0 | 0.00 | 0.00 | 0.00 | 38 | 1010.5 |
| 20260906080004 | 28 | 148 | 0.0 | 0.0 | 0.00 | 0.00 | 0.00 | 40 | 1010.6 |
| 20260906074504 | 28 | 148 | 0.0 | 1.6 | 0.00 | 0.00 | 0.00 | 42 | 1010.7 |
| 20260906073002 | 28 | 148 | 0.0 | 1.6 | 0.00 | 0.00 | 0.00 | 44 | 1010.7 |
| 20260906071601 | 28 | 148 | 0.0 | 0.0 | 0.00 | 0.00 | 0.00 | 44 | 1010.8 |
| 20260906070058 | 28 | 148 | 0.0 | 1.6 | 0.00 | 0.00 | 0.00 | 46 | 1010.9 |
| 20260906064556 | 28 | 156 | 0.0 | 0.0 | 0.00 | 0.00 | 0.00 | 47 | 1011.0 |
| 20260906063055 | 28 | 156 | 0.0 | 0.0 | 0.00 | 0.00 | 0.00 | 48 | 1011.0 |
| 20260906061552 | 28 | 156 | 0.0 | 1.6 | 0.00 | 0.00 | 0.00 | 49 | 1011.1 |
| 20260906060100 | 29 | 158 | 0.0 | 0.0 | 0.00 | 0.00 | 0.00 | 49 | 1011.1 |
| 20260906054551 | 29 | 155 | 0.0 | 1.6 | 0.00 | 0.00 | 0.00 | 50 | 1011.0 |
| 20260906053049 | 29 | 155 | 0.0 | 1.6 | 0.00 | 0.00 | 0.00 | 51 | 1010.9 |
| 20260906051554 | 29 | 154 | 0.0 | 0.0 | 0.00 | 0.00 | 0.00 | 54 | 1010.9 |
| 20260906050047 | 30 | 147 | 0.0 | 0.0 | 0.00 | 0.00 | 0.00 | 55 | 1010.9 |
| 20260906044542 | 30 | 148 | 0.0 | 0.0 | 0.00 | 0.00 | 0.00 | 56 | 1011.1 |
| 20260906043043 | 30 | 146 | 0.0 | 0.0 | 0.00 | 0.00 | 0.00 | 57 | 1010.9 |
| 20260906041546 | 30 | 146 | 0.0 | 0.0 | 0.00 | 0.00 | 0.00 | 57 | 1010.8 |
| 20260906040047 | 30 | 69 | 0.0 | 1.6 | 0.00 | 0.00 | 0.00 | 58 | 1010.8 |
| 20260906034540 | 30 | 153 | 0.0 | 1.6 | 0.00 | 0.00 | 0.00 | 58 | 1010.8 |
| 20260906033039 | 30 | 143 | 0.0 | 1.6 | 0.00 | 0.00 | 0.00 | 58 | 1010.8 |
| 20260906031538 | 31 | 49 | 0.0 | 1.6 | 0.00 | 0.00 | 0.00 | 58 | 1010.9 |
| 20260906030039 | 31 | 150 | 0.0 | 1.6 | 0.00 | 0.00 | 0.00 | 58 | 1010.8 |
| 20260906024538 | 31 | 145 | 0.0 | 1.6 | 0.00 | 0.00 | 0.00 | 58 | 1010.7 |
| 20260906023044 | 31 | 134 | 0.0 | 1.6 | 0.00 | 0.00 | 0.00 | 57 | 1010.5 |
| 20260906021537 | 31 | 141 | 0.0 | 1.6 | 0.00 | 0.00 | 0.00 | 57 | 1010.2 |
| 20260906020036 | 31 | 152 | 0.0 | 1.6 | 0.00 | 0.00 | 0.00 | 56 | 1010.1 |
| 20260906014539 | 32 | 95 | 0.0 | 1.6 | 0.00 | 0.00 | 0.00 | 55 | 1009.9 |
| 20260906013034 | 32 | 157 | 0.0 | 1.6 | 0.00 | 0.00 | 0.00 | 54 | 1009.5 |
| 20260906011534 | 33 | 155 | 0.0 | 3.2 | 0.00 | 0.00 | 0.00 | 53 | 1009.3 |
| 20260906010034 | 33 | 139 | 0.0 | 4.8 | 0.00 | 0.00 | 0.00 | 50 | 1009.2 |
| 20260906004534 | 35 | 152 | 0.0 | 1.6 | 0.00 | 0.00 | 0.00 | 43 | 1008.9 |
| 20260906003033 | 35 | 131 | 0.0 | 1.6 | 0.00 | 0.00 | 0.00 | 41 | 1008.8 |
| 20260906001529 | 35 | 143 | 0.0 | 1.6 | 0.00 | 0.00 | 0.00 | 40 | 1008.8 |
| 20260906000025 | 36 | 147 | 0.0 | 0.0 | 0.00 | 0.00 | 0.00 | 39 | 1008.6 |
| 20260905234522 | 37 | 146 | 0.0 | 0.0 | 0.00 | 0.00 | 0.00 | 38 | 1008.6 |